STARLINK-3290 (50828 NORAD) Tracking and Keplerian Element Data

This shows tracking and keplerian element data for the satellite.

Feedback or suggestion? Click here.




ElementValue
Catalog50828
NameSTARLINK-3290
Epoch Orbit2197
Epoch Day140.58334491
Epoch Year2022
RAAN285.0696
Inclination53.2178
Eccentricity0.0001797
Argument of Perigee38.9472
Mean Anonmoly42.3537
Mean Motion15.08855393
Decay Rate-0.00047827
L11 50828U 22001AB 22140.58334491 -.00047827 00000+0 -30057-2 0 9990
L22 50828 53.2178 285.0696 0001797 38.9472 42.3537 15.08855393 21974

Live tracking and technical data element details for STARLINK-3290 (NORAD 50828). STARLINK-3290 can be tracked NOW for your location showing map with azimuth and elevation plus other details from your city location.

Track the satellite on the map from your city or location and see movement details for azimuth, elevation, latitude, longitude, range, height, and movement on the map or in text.







IsCatalogInMostPopularTable: catalog: 50828, numindb: 20
Update: records affected: 1



GetName: 50828 STARLINK-3290

Hit Count: updated at: Sun, 22 May 2022 04:29:15 GMT